User: anonymous   Login
Location: Caltech
(34.1382°N, 118.1253°W)
Time: 15:41:52
(UTC-08:00)
Language:

Cosmos 1025 Rocket - Orbit

View from above orbital plane
View from above orbital plane
View from above satellite
View from above satellite

Ground track
Ground track

The orbit data is extracted from the following two-line orbital elements,

1 10974U 78067B   14326.72730998  .00000528  00000-0  56501-4 0  4687
2 10974 082.4813 336.8313 0017321 204.0502 208.2767 14.86748654968258
Epoch (UTC): 22 November 2014 17:27:19
Eccentricity: 0.0017321
inclination: 82.4813°
perigee height: 596 km
apogee height: 620 km
right ascension of ascending node: 336.8313°
argument of perigee: 204.0502°
revolutions per day: 14.86748654
mean anomaly at epoch: 208.2767°
orbit number at epoch: 96825

The dashed part of the orbit path shows where the satellite is in the earth's shadow,  

DLR